"TOA5","AWS1","CR1000","7964","CR1000.Std.14","CPU:AWS1_114.CR1","64363","TBL110"
"TIMESTAMP","RECORD","Wind_spd_WVc(1)","Wind_spd_WVc(2)","Air_Temp_Avg","Humidity_Avg","SW_upper_Wm2_Avg","Rain_Tot","Press_Avg","Issui_Tot","Depth_cm","SR50A_Raw","Quality","Ground_Temp_Avg(1)","Ground_Temp_Avg(2)","SW_lower_Wm2_Avg","Albedo_Avg","SWC_per(1)","SWC_per(2)","Period(1)","Period(2)"
"TS","RN","","","","","","","","","","","","","","","","","","",""
"","","WVc","WVc","Avg","Avg","Avg","Tot","Avg","Tot","Smp","Smp","Smp","Avg","Avg","Avg","Avg","Smp","Smp","Smp","Smp"
"2016-11-10 00:00:00",261277,0.516,280.1,-3.61,77.51,0,0,869.7185,0,-1.145,3.213,201,7.528,9.1,0.6830384,0,51.82,59.61,33.75,35.59
"2016-11-10 00:10:00",261278,0.376,248,-3.523,77.46,0,0,869.7537,0,-1.2,3.212,200,7.566,9.08,0.6830466,0,51.82,59.61,33.75,35.59
"2016-11-10 00:20:00",261279,0.322,293.7,-3.505,77.83,0,0,869.5852,0,-1.248,3.213,200,7.569,9.05,0.6792545,0,51.82,59.61,33.75,35.59
"2016-11-10 00:30:00",261280,0.228,225.2,-3.433,79.87,0,0,869.5577,0,-1.2,3.212,200,7.568,9.05,0.68305,0,51.82,59.61,33.75,35.59
"2016-11-10 00:40:00",261281,0.34,275,-3.497,80.6,0,0,869.4442,0,-1.819,3.219,190,7.515,9.07,0.4212143,0,51.82,59.56,33.75,35.58
"2016-11-10 00:50:00",261282,0.362,216.9,-3.674,81.4,0,0,869.4181,0,-1.665,3.219,202,7.496,9.08,0.2276834,0,51.82,59.61,33.75,35.59
"2016-11-10 01:00:00",261283,0.367,178.2,-3.908,82.2,0,0,869.5536,0,-2.802,3.232,200,7.522,9.09,0.2276834,0,51.82,59.56,33.75,35.58
"2016-11-10 01:10:00",261284,0.28,289.9,-4.145,83.3,0,0,869.6973,0,-3.022,3.235,191,7.525,9.07,0.220094,0,51.82,59.56,33.75,35.58
"2016-11-10 01:20:00",261285,0.129,194.5,-4.297,84.9,0,0,869.7965,0,-4.355,3.25,179,7.482,9.07,0.2276834,0,51.82,59.56,33.75,35.58
"2016-11-10 01:30:00",261286,0.349,304.4,-4.449,85.7,0,0,869.7985,0,-2.57,3.232,250,7.486,9.04,0.3946512,0,51.82,59.56,33.75,35.58
"2016-11-10 01:40:00",261287,0.478,230.2,-4.513,86.3,0,0,869.7737,0,-2.122,3.228,224,7.428,9.04,0.5578243,0,51.82,59.56,33.75,35.58
"2016-11-10 01:50:00",261288,0.338,148.3,-4.688,87.9,0,0,869.799,0,-2.019,3.228,247,7.389,9.07,0.2959884,0,51.82,59.56,33.75,35.58
"2016-11-10 02:00:00",261289,0.56,174.1,-4.705,89.2,0,0,869.8349,0,-3.804,3.246,183,7.395,9.05,0.6375135,0,51.82,59.56,33.75,35.58
"2016-11-10 02:10:00",261290,0.254,200.4,-4.763,90,0,0,869.8307,0,-2.338,3.232,235,7.394,9,0.5009035,0,51.82,59.56,33.75,35.58
"2016-11-10 02:20:00",261291,0.277,190.9,-4.755,90,0,0,869.9826,0,-3.257,3.241,208,7.355,8.99,0.6413082,0,51.82,59.56,33.75,35.58
"2016-11-10 02:30:00",261292,0.348,254.4,-4.804,89.8,0,0,870.0164,0,-0.804,3.216,297,7.289,8.96,0.4895193,0,51.82,59.56,33.75,35.58
"2016-11-10 02:40:00",261293,0.657,228,-4.607,87.4,0,0,869.8665,0,-3.606,3.244,199,7.299,8.96,0.6830502,0,51.82,59.56,33.75,35.58
"2016-11-10 02:50:00",261294,0.526,200.7,-4.699,88.5,0,0,869.8644,0,1.179,3.196,382,7.309,8.96,0.4212143,0,51.82,59.56,33.75,35.58
"2016-11-10 03:00:00",261295,0.393,215.7,-4.72,88.2,0,0,870.0164,0,0.213,3.206,309,7.309,8.96,0.6564872,0,51.82,59.56,33.75,35.58
"2016-11-10 03:10:00",261296,0.685,179.6,-4.727,88.8,0,0,870.1007,0,-3.48,3.243,186,7.315,8.96,0.6830502,0,51.82,59.56,33.75,35.58
"2016-11-10 03:20:00",261297,0.754,169.7,-4.679,90,0,0,869.8539,0,-3.558,3.243,195,7.288,8.96,0.6830502,0,51.77,59.56,33.73,35.58
"2016-11-10 03:30:00",261298,0.46,182.5,-4.557,89,0,0,869.8181,0,-2.295,3.23,232,7.181,8.96,0.6337188,0,51.77,59.56,33.73,35.58
"2016-11-10 03:40:00",261299,0.704,199.2,-4.59,88,0,0,869.8644,0,-2.864,3.236,200,7.192,8.96,0.3415251,0,51.77,59.5,33.73,35.56
"2016-11-10 03:50:00",261300,0.7,190.5,-4.533,86.9,0,0,869.6324,0,-2.915,3.236,189,7.222,8.96,0.5767979,0,51.82,59.5,33.75,35.56
"2016-11-10 04:00:00",261301,0.743,198.5,-4.482,85.8,0,0,869.7527,0,-2.967,3.236,201,7.222,8.96,0.6413082,0,51.82,59.5,33.75,35.56
"2016-11-10 04:10:00",261302,0.458,207.5,-4.396,84.6,0,0,869.9298,0,-1.505,3.221,230,7.215,8.96,0.6602818,0,51.82,59.5,33.75,35.56
"2016-11-10 04:20:00",261303,0.437,160.1,-4.327,84.2,0,0,870.0522,0,-0.91,3.215,261,7.175,8.96,0.561619,0,51.82,59.5,33.75,35.56
"2016-11-10 04:30:00",261304,0.374,197.4,-4.381,84.8,0,0,870.0585,0,-1.134,3.217,235,7.186,8.96,0.4136248,0,51.77,59.5,33.73,35.56
"2016-11-10 04:40:00",261305,0.09,324.9,-4.286,83.9,0,0,870.0269,0,-1.258,3.218,220,7.149,8.95,0.6602818,0,51.77,59.5,33.73,35.56
"2016-11-10 04:50:00",261306,0.728,281.7,-4.233,82.3,0,0,869.8011,0,-1.883,3.223,222,7.135,8.93,0.6830502,0,51.77,59.5,33.73,35.56
"2016-11-10 05:00:00",261307,0.089,119.3,-4.163,83.7,0,0,869.8054,0,-1.582,3.221,240,7.135,8.92,0.4515721,0,51.77,59.5,33.73,35.56
"2016-11-10 05:10:00",261308,0.04,88.7,-4.343,84.3,0,0,869.799,0,-1.652,3.223,241,7.139,8.93,0.2276834,0,51.82,59.5,33.75,35.56
"2016-11-10 05:20:00",261309,0.229,171.1,-4.545,85.1,0,0,869.7969,0,-1.894,3.227,237,7.105,8.95,0.2276834,0,51.77,59.5,33.73,35.56
"2016-11-10 05:30:00",261310,0.246,173.3,-4.738,86.4,0,0,869.799,0,-1.575,3.223,229,7.018,8.94,0.2770148,0,51.82,59.5,33.75,35.56
"2016-11-10 05:40:00",261311,0.368,217.7,-4.707,86.5,0,0,869.837,0,-1.821,3.226,210,7.033,8.93,0.3339356,0,51.77,59.5,33.73,35.56
"2016-11-10 05:50:00",261312,0.188,199.9,-4.613,86.7,0,0,869.8328,0,-1.993,3.228,208,7.046,8.9,0.6071557,0,51.77,59.5,33.73,35.56
"2016-11-10 06:00:00",261313,0.159,190.9,-4.761,88.7,0,0,869.6093,0,-1.769,3.226,209,7.014,8.87,0.4781351,0,51.82,59.5,33.75,35.56
"2016-11-10 06:10:00",261314,0.471,153.6,-4.779,88.6,0,0,869.3625,0,-2.118,3.229,222,7.006,8.87,0.6792555,0,51.82,59.5,33.75,35.56
"2016-11-10 06:20:00",261315,0.347,255.5,-4.648,88.1,0,0,869.3646,0,-2.269,3.23,199,6.989,8.88,0.6830502,0,51.77,59.5,33.73,35.56
"2016-11-10 06:30:00",261316,0.189,105.9,-4.641,86.9,0.6572549,0,869.6768,0,-2.192,3.23,211,6.962,8.9,0.8272496,0.863,51.77,59.5,33.73,35.56
"2016-11-10 06:40:00",261317,0.067,49.29,-4.687,87.3,4.482715,0,869.6282,0,-1.946,3.227,218,6.962,8.9,1.536863,0.377,51.77,59.5,33.73,35.56
"2016-11-10 06:50:00",261318,0.135,115.9,-4.548,86.4,9.477065,0,869.799,0,-2.195,3.229,218,6.963,8.88,2.333755,0.246,51.77,59.5,33.73,35.56
"2016-11-10 07:00:00",261319,0,300.3,-4.411,85.8,17.03746,0,869.8096,0,-2.942,3.236,198,6.975,8.84,3.551861,0.212,51.77,59.5,33.73,35.56
"2016-11-10 07:10:00",261320,0.313,33.12,-4.355,86.4,36.76692,0,870.1133,0,-3.981,3.247,190,6.927,8.83,6.838091,0.185,51.77,59.44,33.73,35.55
"2016-11-10 07:20:00",261321,0.058,6.819,-4.359,87.2,45.264,0,870.1028,0,-4.287,3.248,190,6.851,8.83,7.980303,0.176,51.82,59.44,33.75,35.55
"2016-11-10 07:30:00",261322,0.068,127.6,-3.969,85.5,52.14747,0,870.0585,0,-2.258,3.226,225,6.842,8.83,9.080773,0.174,51.77,59.44,33.73,35.55
"2016-11-10 07:40:00",261323,0.026,219.5,-3.838,83.1,56.35469,0,870.1576,0,-2.335,3.226,229,6.867,8.83,9.752439,0.173,51.77,59.44,33.73,35.55
"2016-11-10 07:50:00",261324,0.104,178.8,-3.607,83.5,80.37402,0,870.5352,0,-2.293,3.223,214,6.875,8.82,13.72551,0.172,51.77,59.44,33.73,35.55
"2016-11-10 08:00:00",261325,0.325,78.06,-3.364,85.1,109.5018,0,870.8578,0,-2.142,3.222,235,6.875,8.83,19.7022,0.179,51.77,59.44,33.73,35.55
"2016-11-10 08:10:00",261326,0.468,11.73,-3.713,84.6,124.0834,0,871.0645,0,-1.393,3.216,236,6.875,8.81,21.9373,0.177,51.77,59.44,33.73,35.55
"2016-11-10 08:20:00",261327,0.398,27.65,-3.553,85.4,109.1083,0,871.0967,0,-1.845,3.219,241,6.875,8.81,17.79346,0.163,51.82,59.44,33.75,35.55
"2016-11-10 08:30:00",261328,0.21,4.605,-3.372,84.2,142.7099,0,871.0616,0,-3.292,3.231,198,6.874,8.79,24.30883,0.17,51.77,59.44,33.73,35.55
"2016-11-10 08:40:00",261329,0.361,198.6,-2.833,81.1,142.2198,0,870.8853,0,-3.89,3.236,172,6.868,8.78,24.02766,0.169,51.77,59.44,33.73,35.55
"2016-11-10 08:50:00",261330,0.392,316.6,-2.864,80.9,115.275,0,870.9636,0,-1.884,3.216,236,6.84,8.77,22.45938,0.193,51.77,59.44,33.73,35.55
"2016-11-10 09:00:00",261331,0.373,4.482,-2.819,82.3,103.6844,0,870.9774,0,-1.645,3.213,221,6.741,8.75,19.99424,0.193,51.77,59.44,33.73,35.55
"2016-11-10 09:10:00",261332,0.404,0.32,-2.675,81.6,151.1254,0,870.9729,0,-1.442,3.209,206,6.714,8.72,27.95913,0.186,51.82,59.44,33.75,35.55
"2016-11-10 09:20:00",261333,0.523,12.58,-2.624,80.5,139.6906,0,870.8348,0,-2.383,3.219,214,6.701,8.71,21.44847,0.153,51.77,59.44,33.73,35.55
"2016-11-10 09:30:00",261334,0.279,27.86,-2.683,80.7,138.5517,0,870.7185,0,-1.085,3.207,214,6.656,8.71,20.89812,0.151,51.77,59.44,33.73,35.55
"2016-11-10 09:40:00",261335,0.252,24.46,-2.319,80.7,179.1139,0,870.6025,0,-2.067,3.212,198,6.641,8.71,27.24066,0.152,51.77,59.44,33.73,35.55
"2016-11-10 09:50:00",261336,0.424,77.61,-1.92,79.55,200.2253,0,870.4296,0,-0.324,3.194,242,6.62,8.69,30.15777,0.151,51.77,59.44,33.73,35.55
"2016-11-10 10:00:00",261337,0.307,54.96,-1.888,79.39,215.4628,0,870.1766,0,-2.591,3.217,193,6.623,8.69,31.68652,0.147,51.77,59.44,33.73,35.55
"2016-11-10 10:10:00",261338,0.121,22.64,-1.556,78.51,221.2581,0,870.0585,0,-1.675,3.205,197,6.645,8.68,32.92317,0.149,51.77,59.44,33.73,35.55
"2016-11-10 10:20:00",261339,0.378,38.48,-1.198,77.91,247.6258,0,870.0143,0,-0.805,3.194,179,6.667,8.69,39.31889,0.158,51.77,59.44,33.73,35.55
"2016-11-10 10:30:00",261340,0.346,354.9,-0.88,76.24,288.3853,0,869.9594,0,-1.93,3.204,194,6.675,8.69,44.93696,0.156,51.77,59.44,33.73,35.55
"2016-11-10 10:40:00",261341,0.43,335.9,-0.615,75.52,242.1114,0,869.7111,0,-1.778,3.201,187,6.654,8.69,35.34682,0.146,51.77,59.44,33.73,35.55
"2016-11-10 10:50:00",261342,0.489,342.7,-0.556,75.31,277.3241,0,869.6469,0,-1.943,3.201,184,6.637,8.67,43.37446,0.156,51.77,59.44,33.73,35.55
"2016-11-10 11:00:00",261343,0.391,317.1,-0.167,74.23,265.2955,0,869.6098,0,-1.806,3.199,189,6.619,8.64,47.05823,0.177,51.77,59.38,33.73,35.54
"2016-11-10 11:10:00",261344,0.505,336.7,-0.058,74.18,317.0881,0,869.4093,0,-2.197,3.2,185,6.614,8.61,49.62881,0.157,51.77,59.44,33.73,35.55
"2016-11-10 11:20:00",261345,0.41,302,0.377,72.16,271.3304,0,869.4099,0,-1.866,3.196,187,6.636,8.57,40.24745,0.148,51.77,59.38,33.73,35.54
"2016-11-10 11:30:00",261346,0.257,296.5,0.535,72.2,242.1521,0,869.5507,0,-2.066,3.197,189,6.602,8.56,35.43792,0.146,51.77,59.44,33.73,35.55
"2016-11-10 11:40:00",261347,0.26,27.76,0.563,73.6,243.086,0,869.7171,0,-1.79,3.194,184,6.572,8.56,35.81303,0.147,51.71,59.38,33.72,35.54
"2016-11-10 11:50:00",261348,0.321,4.748,0.697,72.63,292.9123,0,869.5148,0,-1.715,3.193,217,6.635,8.56,43.87502,0.15,51.71,59.38,33.72,35.54
"2016-11-10 12:00:00",261349,0.608,96.5,1.228,71.45,290.5051,0,869.5633,0,-1.417,3.185,189,6.635,8.56,42.98763,0.148,51.77,59.38,33.73,35.54
"2016-11-10 12:10:00",261350,0.398,132.6,2.2,69.32,279.9844,0,869.5801,0,-1.768,3.183,196,6.672,8.56,42.10786,0.15,51.71,59.38,33.72,35.54
"2016-11-10 12:20:00",261351,0.455,115.4,2.56,65.84,219.0823,0,869.6033,0,-1.717,3.183,195,6.738,8.56,32.42654,0.148,51.77,59.38,33.73,35.54
"2016-11-10 12:30:00",261352,0.691,145.1,2.707,62.92,226.3976,0,869.6013,0,-2.22,3.185,187,6.735,8.56,34.64115,0.153,51.71,59.38,33.72,35.54
"2016-11-10 12:40:00",261353,0.881,152.7,3.095,63.62,246.1252,0,869.4377,0,-1.967,3.181,189,6.71,8.56,37.94027,0.154,51.71,59.38,33.72,35.54
"2016-11-10 12:50:00",261354,0.896,146.9,3.291,66.44,174.4044,0,869.3477,0,-2.364,3.185,196,6.8,8.55,26.76058,0.153,51.77,59.38,33.73,35.54
"2016-11-10 13:00:00",261355,0.278,158.4,3.517,69.37,160.5495,0,869.2904,0,-2.23,3.181,188,6.807,8.54,24.65489,0.154,51.71,59.38,33.72,35.54
"2016-11-10 13:10:00",261356,0.857,142.4,3.502,70.85,197.3177,0,869.082,0,-2.294,3.183,196,6.752,8.52,30.23812,0.153,51.71,59.38,33.72,35.54
"2016-11-10 13:20:00",261357,0.583,126.9,3.6,72.51,199.9508,0,869.0463,0,-3.037,3.188,192,6.841,8.5,30.77446,0.154,51.71,59.44,33.72,35.55
"2016-11-10 13:30:00",261358,0.759,140.8,3.73,72.77,197.9115,0,869.0178,0,-3.078,3.189,188,6.837,8.48,29.93063,0.151,51.71,59.38,33.72,35.54
"2016-11-10 13:40:00",261359,0.573,125.9,3.851,72.55,186.5131,0,868.9523,0,-2.595,3.183,187,6.759,8.47,28.28413,0.152,51.71,59.38,33.72,35.54
"2016-11-10 13:50:00",261360,0.719,142.3,3.844,71.8,170.8463,0,869.0155,0,-2.368,3.181,198,6.847,8.47,25.80444,0.151,51.71,59.38,33.72,35.54
"2016-11-10 14:00:00",261361,0.522,138.2,4.021,71.32,163.0607,0,868.986,0,-2.568,3.182,202,6.895,8.46,24.82247,0.152,51.66,59.38,33.7,35.54
"2016-11-10 14:10:00",261362,0.705,134,4.107,70.53,155.7476,0,868.7774,0,-2.316,3.179,196,6.834,8.46,23.84439,0.153,51.66,59.38,33.7,35.54
"2016-11-10 14:20:00",261363,0.254,136.4,4.287,69.77,141.574,0,868.7711,0,-2.365,3.178,202,6.932,8.44,21.5585,0.152,51.66,59.38,33.7,35.54
"2016-11-10 14:30:00",261364,0.551,127,4.417,67.95,127.4634,0,868.7838,0,-2.238,3.177,192,6.994,8.43,18.98831,0.149,51.71,59.38,33.72,35.54
"2016-11-10 14:40:00",261365,0.651,135.5,4.334,67.89,124.0626,0,868.71,0,-2.415,3.179,198,6.949,8.36,18.46897,0.149,51.71,59.32,33.72,35.52
"2016-11-10 14:50:00",261366,0.701,179.2,4.489,66.96,118.7391,0,868.5414,0,-2.011,3.174,215,6.955,8.32,17.84727,0.15,51.71,59.38,33.72,35.54
"2016-11-10 15:00:00",261367,0.534,159.5,4.593,66.81,95.99073,0,868.5098,0,-2.464,3.178,199,7.077,8.31,14.27251,0.148,51.66,59.38,33.7,35.54
"2016-11-10 15:10:00",261368,0.245,210.4,4.579,66.09,76.85155,0,868.5793,0,-2.112,3.175,209,7.079,8.3,11.4635,0.149,51.66,59.32,33.7,35.52
"2016-11-10 15:20:00",261369,0.059,81.5,4.594,66.8,87.89944,0,868.6784,0,-2.666,3.18,197,7.03,8.3,13.60911,0.155,51.66,59.38,33.7,35.54
"2016-11-10 15:30:00",261370,0.174,73.66,4.728,64.96,90.2073,0,868.6615,0,-2.262,3.175,217,7.132,8.3,13.63944,0.15,51.71,59.32,33.72,35.52
"2016-11-10 15:40:00",261371,0.217,255.8,4.723,63.35,63.25205,0,868.7648,0,-2.059,3.173,229,7.168,8.32,9.154875,0.145,51.66,59.32,33.7,35.52
"2016-11-10 15:50:00",261372,0.236,307.7,4.504,64.46,44.19151,0,868.9733,0,-1.207,3.168,274,7.165,8.35,6.182858,0.139,51.66,59.32,33.7,35.52
"2016-11-10 16:00:00",261373,0.168,14.81,4.283,64.65,41.03048,0,868.9375,0,-1.457,3.169,234,7.151,8.38,5.925081,0.144,51.66,59.32,33.7,35.52
"2016-11-10 16:10:00",261374,0.138,328.4,4.379,62.59,33.03355,0,868.7585,0,-1.708,3.171,208,7.11,8.38,5.117632,0.155,51.66,59.38,33.7,35.54
"2016-11-10 16:20:00",261375,0.004,212.5,4.335,61.94,18.68703,0,868.7563,0,-1.912,3.175,205,7.094,8.38,2.994762,0.16,51.66,59.38,33.7,35.54
"2016-11-10 16:30:00",261376,0.212,296.6,4.209,62.12,9.384799,0,868.6615,0,-2.013,3.176,205,7.159,8.38,1.724831,0.188,51.66,59.32,33.7,35.52
"2016-11-10 16:40:00",261377,0.201,175.8,3.566,72.25,3.389064,0,868.5203,0,-1.966,3.18,206,7.177,8.38,0.2312412,0.042,51.6,59.32,33.69,35.52
"2016-11-10 16:50:00",261378,0.125,296.1,3.341,72.04,0.5661546,0,868.5287,0,-2.118,3.183,219,7.22,8.38,0.1705877,0.273,51.66,59.38,33.7,35.54
"2016-11-10 17:00:00",261379,0.313,181.4,2.868,75.87,0,0,868.5056,0,-2.068,3.185,216,7.254,8.38,0,0,51.6,59.38,33.69,35.54
"2016-11-10 17:10:00",261380,0.191,193,2.945,73.92,0,0,868.3391,0,-2.269,3.186,208,7.254,8.38,0.3108488,0,51.6,59.38,33.69,35.54
"2016-11-10 17:20:00",261381,0.144,170.2,2.91,74.46,0,0,868.4424,0,-1.919,3.184,231,7.255,8.35,0.235032,0,51.6,59.38,33.69,35.54
"2016-11-10 17:30:00",261382,0.147,180.8,2.689,75.55,0,0,868.5106,0,-1.923,3.183,214,7.259,8.31,0.2160824,0,51.66,59.32,33.7,35.52
"2016-11-10 17:40:00",261383,0.189,179.1,2.68,75.55,0,0,868.5588,0,-1.484,3.181,264,7.273,8.32,0.2691616,0,51.6,59.32,33.69,35.52
"2016-11-10 17:50:00",261384,0.371,186.9,2.376,77.33,0,0,868.731,0,-0.943,3.175,294,7.299,8.36,0.2199076,0,51.6,59.38,33.69,35.54
"2016-11-10 18:00:00",261385,0.276,173.1,2.292,78.54,0,0,868.7831,0,-0.994,3.176,275,7.309,8.37,0.2388713,0,51.6,59.32,33.69,35.52
"2016-11-10 18:10:00",261386,0.155,90.5,3.051,72.27,0.09044913,0,868.8018,0,-2.76,3.188,212,7.316,8.37,1.213355,2.362,51.6,59.32,33.69,35.52
"2016-11-10 18:20:00",261387,0.086,179.7,2.823,74.7,0.01179836,0,868.6276,0,-1.457,3.174,241,7.324,8.38,0.530868,0.337,51.6,59.26,33.69,35.51
"2016-11-10 18:30:00",261388,0.504,337,4.281,67.36,0.9320847,0,868.6585,0,-1.76,3.173,222,7.337,8.39,1.81258,2.178,51.6,59.32,33.69,35.52
"2016-11-10 18:40:00",261389,0.814,341.8,4.277,66.67,0.08652411,0,868.842,0,-1.762,3.173,200,7.342,8.4,0.8721792,1.342,51.6,59.32,33.69,35.52
"2016-11-10 18:50:00",261390,0.863,114,4.466,68.71,0.01573183,0,868.8167,0,-2.164,3.176,227,7.344,8.46,0.7091255,0.225,51.6,59.26,33.69,35.51
"2016-11-10 19:00:00",261391,1.18,151.5,4.986,69.23,0.04326121,0,868.6229,0,-2.455,3.173,217,7.34,8.47,0.92147,0.771,51.6,59.32,33.69,35.52
"2016-11-10 19:10:00",261392,0.539,161,5.484,67.27,0.003932824,0,868.6385,0,-2.754,3.177,255,7.332,8.46,0.6218823,0.08,51.6,59.32,33.69,35.52
"2016-11-10 19:20:00",261393,0.247,264.1,5.104,68.28,0,0,868.7711,0,-4.25,3.193,183,7.307,8.43,0.03033135,0,51.6,59.32,33.69,35.52
"2016-11-10 19:30:00",261394,0.37,283.7,4.831,68.55,0,0,868.7646,0,-3.735,3.191,197,7.282,8.41,0.01516543,0,51.6,59.32,33.69,35.52
"2016-11-10 19:40:00",261395,0.251,154.7,4.542,69.5,0,0,868.7779,0,-1.864,3.172,237,7.267,8.39,0.1668037,0,51.6,59.32,33.69,35.52
"2016-11-10 19:50:00",261396,0.379,308.1,4.548,69.39,0,0,868.9924,0,-3.5,3.19,221,7.26,8.39,0.2198742,0,51.6,59.32,33.69,35.52
"2016-11-10 20:00:00",261397,0.131,166.3,4.055,71.81,0,0,868.7774,0,-3.098,3.19,232,7.256,8.38,0,0,51.6,59.32,33.69,35.52
"2016-11-10 20:10:00",261398,0.101,176.7,3.475,77.42,0,0,868.5772,0,-3.526,3.194,197,7.255,8.38,0.007581683,0,51.6,59.32,33.69,35.52
"2016-11-10 20:20:00",261399,0.198,101.3,3.869,73.52,0,0,868.5077,0,-3.323,3.19,238,7.254,8.38,0.4321558,0,51.55,59.32,33.68,35.52
"2016-11-10 20:30:00",261400,0.411,165.9,3.911,74.74,0.01965815,0,868.3538,0,-3.422,3.188,198,7.231,8.38,0.564835,0.546,51.55,59.32,33.68,35.52
"2016-11-10 20:40:00",261401,0.177,210,5.008,69.98,0.2005131,0,868.3475,0,-3.695,3.185,197,7.204,8.38,1.588361,4.475,51.55,59.26,33.68,35.51
"2016-11-10 20:50:00",261402,0.155,188.3,5.081,69.76,0.003931629,0,868.259,0,-3.775,3.192,202,7.206,8.38,0.7998669,0.112,51.55,59.26,33.68,35.51
"2016-11-10 21:00:00",261403,0.126,170,4.063,75.16,0,0,868.1558,0,-3.475,3.191,201,7.194,8.38,0.01895419,0,51.55,59.26,33.68,35.51
"2016-11-10 21:10:00",261404,0.224,297.5,4.696,71.92,0,0,868.1179,0,-3.622,3.187,198,7.177,8.38,0.8756837,0,51.55,59.26,33.68,35.51
"2016-11-10 21:20:00",261405,0.374,145,5.294,69.61,0.003931629,0,868.2464,0,-3.571,3.186,199,7.169,8.36,1.159997,0.112,51.55,59.26,33.68,35.51
"2016-11-10 21:30:00",261406,0.701,127.4,5.487,70.5,0.01965815,0,867.7766,0,-3.417,3.183,183,7.17,8.35,0.8567295,0.265,51.55,59.26,33.68,35.51
"2016-11-10 21:40:00",261407,0.56,228.3,5.812,69.56,0,0,868.0399,0,-3.768,3.184,194,7.18,8.36,0.8377753,0,51.55,59.26,33.68,35.51
"2016-11-10 21:50:00",261408,0.343,7.43,5.538,70.53,0,0,868.0484,0,-3.09,3.18,204,7.176,8.37,0.117516,0,51.55,59.26,33.68,35.51
"2016-11-10 22:00:00",261409,0.132,66.21,5.198,72.96,0,0,868.0294,0,-3.72,3.186,195,7.184,8.42,0,0,51.55,59.26,33.68,35.51
"2016-11-10 22:10:00",261410,0.178,66.55,5.46,72.4,0,0,867.705,0,-2.861,3.176,195,7.17,8.42,0.3108488,0,51.55,59.26,33.68,35.51
"2016-11-10 22:20:00",261411,0.323,158.6,5.164,73.95,0,0,867.509,0,-3.018,3.182,198,7.167,8.42,0.07581677,0,51.55,59.26,33.68,35.51
"2016-11-10 22:30:00",261412,0.676,149.3,5.897,71.43,0.4796588,0,867.252,0,-2.855,3.172,193,7.169,8.44,1.281303,2.105,51.55,59.26,33.68,35.51
"2016-11-10 22:40:00",261413,0.376,159.9,6.321,69.74,0.1022224,0,867.0223,0,-3.135,3.176,200,7.171,8.47,0.6141158,1.058,51.55,59.26,33.68,35.51
"2016-11-10 22:50:00",261414,0.63,143.1,6.101,70.57,0,0,867.2098,0,-2.455,3.171,204,7.169,8.47,0.3639205,0,51.55,59.26,33.68,35.51
"2016-11-10 23:00:00",261415,0.655,134.2,6.192,70.41,0,0,866.9317,0,-2.853,3.171,205,7.171,8.47,0.5193449,0,51.49,59.2,33.66,35.5
"2016-11-10 23:10:00",261416,0.328,128.6,6.306,70.36,0,0,866.7315,0,-3.26,3.177,202,7.174,8.47,0.140261,0,51.55,59.26,33.68,35.51
"2016-11-10 23:20:00",261417,0.35,182.3,6.254,70.98,0,0,866.6725,0,-2.801,3.17,213,7.169,8.47,0.3411755,0,51.55,59.2,33.68,35.5
"2016-11-10 23:30:00",261418,1.013,170.2,6.661,69.43,0,0,866.5778,0,-2.9,3.17,202,7.169,8.47,0.6633968,0,51.55,59.2,33.68,35.5
"2016-11-10 23:40:00",261419,1.014,156,7.03,68.34,0,0,866.5082,0,-2.847,3.168,268,7.187,8.47,0.6065342,0,51.55,59.2,33.68,35.5
"2016-11-10 23:50:00",261420,0.912,162.2,7.189,67.69,0,0,866.3903,0,-1.78,3.156,207,7.231,8.47,0.3563388,0,51.55,59.2,33.68,35.5
